Printer-friendly version
Follow the MPC on Twitter Follow the MPC on Facebook The MPC blog
Minor Planet Center

MPEC 2001-T26 : 2001 TD

The following Minor Planet Electronic Circular may be linked-to from your own Web pages, but must not otherwise be redistributed electronically.

A form allowing access to any MPEC is at the bottom of this page.


Read MPEC 2001-T25 Read MPEC 2001-T27


M.P.E.C. 2001-T26                                Issued 2001 Oct.  9, 17:20 UT

     The Minor Planet Electronic Circulars contain information on unusual
         minor planets and routine data on comets.  They are published
   on behalf of Commission 20 of the International Astronomical Union by the
          Minor Planet Center, Smithsonian Astrophysical Observatory,
                          Cambridge, MA 02138, U.S.A.

             Prepared using the Tamkin Foundation Computer Network

                              MPC@CFA.HARVARD.EDU
          URL http://cfa-www.harvard.edu/iau/mpc.html  ISSN 1523-6714

                                    2001 TD

Observations:
     K01T00D* C2001 10 08.32024 02 17 45.54 +34 51 42.2          18.4        704
     K01T00D  C2001 10 08.33567 02 17 04.09 +34 54 21.5          18.7        704
     K01T00D  C2001 10 08.35109 02 16 22.88 +34 56 57.5          18.6        704
     K01T00D  C2001 10 08.36664 02 15 41.48 +34 59 30.2          18.5        704
     K01T00D  C2001 10 08.38261 02 14 59.05 +35 02 03.3          18.3        704
     K01T00D  C2001 10 08.90346 01 55 17.81 +36 12 56.0          17.3 R      046
     K01T00D  C2001 10 08.90409 01 55 16.48 +36 13 00.5          17.6 R      046
     K01T00D  C2001 10 08.90448 01 55 15.50 +36 13 05.0          18.0 R      046
     K01T00D  C2001 10 08.97749 01 52 26.27 +36 22 01.4                      118
     K01T00D  C2001 10 08.97814 01 52 24.67 +36 22 05.9                      118
     K01T00D  C2001 10 08.97881 01 52 23.10 +36 22 09.6                      118
     K01T00D  C2001 10 08.98338 01 52 12.51 +36 22 40.4                      118
     K01T00D  C2001 10 08.98421 01 52 10.86 +36 22 46.8          17.4 R      118
     K01T00D  C2001 10 08.98498 01 52 09.05 +36 22 52.3          17.7 R      118
     K01T00D  C2001 10 09.21539 01 44 23.37 +36 47 51.1          17.6 R      649
     K01T00D  C2001 10 09.21659 01 44 20.66 +36 47 59.4          17.9 R      649
     K01T00D  C2001 10 09.21782 01 44 18.02 +36 48 07.2          17.6 R      649

Observer details:
046 Klet.  Observer M. Tichy.  0.57-m f/5.2 reflector + CCD.
118 Modra.  Observers A. Galad, S. Gajdos.  0.6-m f/5.5 reflector + CCD.
649 Powell Observatory, Louisburg.  Observer K. Smalley.  0.75-m Newtonian
    + CCD.
704 Lincoln Laboratory ETS, New Mexico.  Observers M. Blythe, F. Shelly,
    M. Bezpalko, R. Huber, L. Manguso, S. Adams, J. Piscitelli.  Measurers
    J. Stuart, R. Sayer, J. B. Evans, H. Viggh.  1.0-m f/2.15 reflector + CCD.

Orbital elements:
2001 TD
Epoch 2001 Oct. 18.0 TT = JDT 2452200.5                 Marsden
M 113.75365              (2000.0)            P               Q
n   1.05748500     Peri.  241.38169     -0.26631322     +0.96321532
a   0.9541571      Node    13.32064     -0.82085924     -0.20707975
e   0.1658533      Incl.    8.98062     -0.50523993     -0.17127238
P   0.93           H   25.1           G   0.15           U   7
Residuals in seconds of arc
011008 704  0.2+  0.1+    011008 046  1.1+  0.4-    011008 118  0.6+  0.2+
011008 704  0.4-  0.0     011008 046  0.1+  1.1+    011008 118  0.0   0.5+
011008 704  0.1+  0.4+    011008 118  0.8+  0.4+    011009 649  0.6+  0.6-
011008 704  0.6+  0.0     011008 118  0.5-  0.4+    011009 649  0.5-  0.0
011008 704  0.1-  0.3-    011008 118  0.9-  0.4-    011009 649  0.0   0.1+
011008 046  0.4-  0.0     011008 118 (2.4-  0.6-)

Ephemeris:
2001 TD                  a,e,i = 0.95, 0.17, 9                   q = 0.7959
Date    TT    R. A. (2000) Decl.     Delta      r     Elong.  Phase     V
2001 10 08    02 31.38   +33 51.5    0.017    1.013   144.1    35.4    17.8
2001 10 09    01 51.66   +36 25.9    0.020    1.016   147.4    32.0    18.0
2001 10 10    01 20.16   +37 47.0    0.023    1.018   148.5    30.8    18.3
2001 10 11    00 55.48   +38 25.9    0.026    1.021   148.4    30.8    18.6
2001 10 12    00 36.07   +38 41.2    0.030    1.023   147.8    31.3    18.9
2001 10 13    00 20.65   +38 43.6    0.033    1.026   146.8    32.1    19.1
2001 10 14    00 08.24   +38 38.7    0.037    1.028   145.8    33.0    19.4
2001 10 15    23 58.14   +38 29.9    0.041    1.031   144.7    34.0    19.6
2001 10 16    23 49.83   +38 19.0    0.044    1.033   143.7    34.8    19.8
2001 10 17    23 42.92   +38 07.1    0.048    1.035   142.7    35.7    20.0
2001 10 18    23 37.13   +37 54.8    0.052    1.038   141.7    36.5    20.2
2001 10 19    23 32.26   +37 42.4    0.056    1.040   140.8    37.2    20.4
2001 10 20    23 28.13   +37 30.3    0.060    1.042   140.0    37.9    20.6
2001 10 21    23 24.62   +37 18.5    0.063    1.044   139.1    38.6    20.7
2001 10 22    23 21.64   +37 07.0    0.067    1.047   138.3    39.2    20.9
2001 10 23    23 19.10   +36 56.0    0.071    1.049   137.5    39.8    21.0
2001 10 24    23 16.95   +36 45.4    0.075    1.051   136.8    40.4    21.2
2001 10 25    23 15.12   +36 35.2    0.079    1.053   136.0    41.0    21.3
2001 10 26    23 13.58   +36 25.4    0.083    1.055   135.3    41.5    21.4
2001 10 27    23 12.29   +36 15.9    0.087    1.057   134.6    42.0    21.6
2001 10 28    23 11.23   +36 06.9    0.091    1.059   134.0    42.5    21.7
2001 10 29    23 10.36   +35 58.2    0.095    1.061   133.3    43.0    21.8
2001 10 30    23 09.68   +35 49.8    0.099    1.063   132.6    43.4    21.9
2001 10 31    23 09.15   +35 41.8    0.103    1.065   132.0    43.9    22.0
2001 11 01    23 08.77   +35 34.0    0.107    1.067   131.4    44.3    22.1
2001 11 02    23 08.53   +35 26.5    0.111    1.068   130.8    44.7    22.2
2001 11 03    23 08.40   +35 19.3    0.116    1.070   130.1    45.1    22.3
2001 11 04    23 08.39   +35 12.3    0.120    1.072   129.5    45.5    22.4
2001 11 05    23 08.49   +35 05.5    0.124    1.074   128.9    45.9    22.5
2001 11 06    23 08.68   +34 59.0    0.128    1.075   128.4    46.3    22.5
2001 11 07    23 08.97   +34 52.7    0.132    1.077   127.8    46.7    22.6

Brian G. Marsden             (C) Copyright 2001 MPC           M.P.E.C. 2001-T26

Read MPEC 2001-T25 Read MPEC 2001-T27


MPEC number:

Enter an MPEC number in one of the following forms:

  • 1997-B01 (the full form)
  • J97B01 (the packed version of the full form)
  • B01 (the abbreviated form)

Valid HTML 4.01!